Location: Unspecified
(11.2514°N, 0.0000°E)
Time: 02:04:34
(UTC+00:00)

S-56A Canister/Altair - Visible Passes

Search period start: 04 April 2026 00:00
Search period end: 14 April 2026 00:00
Orbit: 632 x 2485 km, 38.9° (Epoch: 28 March)

Date Brightness Start Highest point End Pass type
(mag) Time Alt. Az. Time Alt. Az. Time Alt. Az.
4 Apr 11.0 03:48:07 10° S 03:55:41 21° SE 04:04:52 10° E visible
5 Apr 11.1 03:14:38 10° SSE 03:20:21 16° SE 03:27:02 10° E visible
5 Apr 10.1 05:13:46 10° SW 05:24:59 66° SE 05:39:40 10° ENE visible
6 Apr 11.2 02:42:44 10° SE 02:45:03 11° SE 02:47:32 10° ESE visible
6 Apr 10.1 04:39:00 10° SSW 04:49:24 56° SE 05:03:25 10° ENE visible
7 Apr 10.2 04:06:00 17° SSW 04:13:57 47° SE 04:27:00 10° ENE visible
8 Apr 10.2 03:33:31 25° S 03:38:36 38° SE 03:50:25 10° ENE visible
8 Apr 9.8 05:32:42 10° WSW 05:43:54 71° NW 05:58:47 10° NE visible
9 Apr 10.2 03:01:00 27° SSE 03:03:23 30° SE 03:13:39 10° ENE visible
9 Apr 9.6 04:58:17 13° SW 05:08:08 80° NW 05:22:45 10° NE visible
10 Apr 10.5 02:28:26 23° SE 02:28:26 23° SE 02:36:38 10° E visible
10 Apr 9.4 04:25:43 26° SW 04:32:30 90° E 04:46:41 10° NE visible
11 Apr 11.0 01:55:48 15° ESE 01:55:48 15° ESE 01:59:13 10° E visible
11 Apr 9.3 03:53:05 45° SW 03:56:59 78° SE 04:10:31 10° NE visible
12 Apr 9.1 03:20:24 62° S 03:21:37 66° SE 03:34:18 10° ENE visible
12 Apr 10.1 05:17:42 10° W 05:27:49 45° NNW 05:41:18 10° NE visible
13 Apr 9.5 02:47:38 52° ESE 02:47:38 52° ESE 02:58:00 10° ENE visible
13 Apr 9.8 04:44:54 21° W 04:51:58 50° NNW 05:05:19 10° NE visible
